CZ-4B DEB, 56088

Orbit data source: Space-Track

CZ-4B DEB, 56088 is space debris in SSO originally from a launch on Wed, 24 Oct 2018 UTC launched from the Taiyaun Space Center, China (TSC). Debris objects in space refer to the collection of defunct objects orbiting the Earth. Examples of debris include non-operational satellites, rocket bodies, and fragments generated from explosions, collisions, or faulty payload assembly.

Loading next visibility...
Identifier
56088, 2018-081J
Orbit
SSO
Country
Flag of CNCN / PRC
Related business
Manufacturer
Unknown
Mission
Spacecraft
Bus & Motor
Unknown
Mass
Unknown
Launch date (UTC)
2018-10-24 (8 years ago)
Launch vehicle
Unknown
Launch site
Taiyaun Space Center, China (TSC)
Object type
Payload
Rocket body
Debris
Shape & HBR
Unknown shape, 0.1 m
Radar Cross Section
Small (<0.1 m²)

Expand to show TLE details & history
Last TLE update: 1 day ago

TLE from 1 day ago
0 CZ-4B DEB
1 56088U 18081J   26126.37580587  .00004440  00000-0  15754-2 0  9991
2 56088  98.7773 286.5705 0133872 359.3503   0.7485 14.30057689159760
Epoch: 2026-05-06T09:01Z
TLE epoch observation values (Epoch: 2026-05-06T09:01:09.627Z)
Latitude
0.00003°
Longitude
-72.95681°
Altitude
698.472 km
Speed
7.557 km/s
True Right ascension
19h 06m 16s
True Declination
0° 00' 00"
Sunlit
Object was in partial shadow at epoch
Visualization orbit readout
Latitude
Unknown
Longitude
Unknown
Altitude
Unknown
Speed
Unknown
Apparent Right ascension
Unknown
Apparent Declination
Unknown
Sunlit
N/A
Visualization observer readout
Local Sidereal Time
03:53:44
Azimuth
Unknown
Elevation
Unknown
Doppler factor
Unknown
Orbital elements
Apogee altitude
884.629 km
Perigee altitude
692.742 km
Semi-major axis
7,166.823 km
Eccentricity
0.01339
Inclination
98.7773°
RAAN
286.5705°
Arg. of periapsis
359.3503°
True anomaly
0.76888°
Mean anomaly
0.7485°
Eccentric anomaly
0.75866°
Mean motion
3.57728 °/min
Orbital period
100.64 mins
BSTAR
0.0015754
Loading maneuver chart data...
Computing Atmospheric mass density...
Loading historical data...
Loading historical data...
Loading historical data...
Loading historical data...
Loading historical data...
Loading historical data...
Loading historical data...

Documentation

Showing up to 5 results
|